QPF
0.04 0.03 0.03 0.02 0.02 0.02 0.02 0.01 0.01 0.01 0.01 0.02 0.01 0.01 0.01 0.01 0.01 0.01 0.02 0.03 0.02 0.02 0.01 0.01 0.01 0.02 0.02 0.03 0.03 0.03 0.04 0.04 0.04 0.02 0.02 0.02 0.02 0.01 0.01 0.02 0.02 0.01 0.02
0.04 0.05 0.04 0.03 0.02 0.02 0.02 0.02 0.02 0.01 0.01 0.02 0.02 0.01 0.01 0.01 0.01 0.01 0.02 0.02 0.02 0.01 0.01 0.02 0.02 0.03 0.03 0.03 0.03 0.03 0.04 0.05 0.04 0.03 0.02 0.02 0.02 0.02 0.02 0.03 0.02 0.02 0.01
0.03 0.04 0.04 0.04 0.03 0.02 0.02 0.02 0.02 0.02 0.02 0.02 0.02 0.01 0.02 0.02 0.02 0.02 0.02 0.03 0.02 0.02 0.02 0.03 0.03 0.04 0.04 0.03 0.03 0.03 0.04 0.04 0.05 0.05 0.03 0.03 0.02 0.02 0.02 0.02 0.02 0.02 0.02
0.02 0.02 0.03 0.03 0.03 0.03 0.02 0.02 0.02 0.03 0.03 0.02 0.02 0.02 0.02 0.01 0.02 0.03 0.03 0.04 0.04 0.04 0.04 0.04 0.04 0.04 0.04 0.04 0.03 0.03 0.04 0.04 0.05 0.04 0.03 0.03 0.03 0.02 0.02 0.02 0.02 0.03 0.02
0.02 0.03 0.03 0.04 0.03 0.03 0.02 0.02 0.02 0.02 0.02 0.01 0.02 0.03 0.02 0.03 0.03 0.04 0.06 0.06 0.05 0.05 0.05 0.04 0.04 0.04 0.04 0.03 0.03 0.02 0.02 0.03 0.03 0.03 0.03 0.03 0.03 0.02 0.02 0.02 0.02 0.02 0.02
0.02 0.03 0.03 0.03 0.03 0.03 0.02 0.02 0.02 0.02 0.02 0.02 0.02 0.02 0.02 0.03 0.04 0.06 0.08 0.07 0.06 0.06 0.05 0.05 0.04 0.03 0.04 0.04 0.03 0.02 0.02 0.02 0.02 0.02 0.02 0.02 0.02 0.03 0.04 0.04 0.04 0.04 0.04
0.02 0.03 0.03 0.03 0.03 0.02 0.02 0.01 0.02 0.02 0.02 0.02 0.03 0.03 0.02 0.03 0.05 0.07 0.09 0.09 0.07 0.07 0.06 0.05 0.05 0.05 0.06 0.05 0.04 0.03 0.02 0.01 0.01 0.02 0.02 0.02 0.03 0.03 0.04 0.05 0.05 0.05 0.04
0.04 0.05 0.04 0.04 0.03 0.02 0.02 0.02 0.02 0.02 0.03 0.04 0.04 0.04 0.04 0.05 0.06 0.06 0.06 0.06 0.06 0.06 0.05 0.04 0.04 0.04 0.04 0.03 0.03 0.02 0.02 0.02 0.02 0.02 0.01 0.01 0.01 0.02 0.03 0.03 0.04 0.04 0.03
0.03 0.03 0.03 0.03 0.03 0.02 0.02 0.02 0.02 0.02 0.03 0.04 0.07 0.09 0.07 0.06 0.05 0.05 0.05 0.04 0.04 0.06 0.05 0.04 0.03 0.03 0.02 0.02 0.02 0.02 0.02 0.02 0.02 0.02 0.02 0.03 0.02 0.02 0.02 0.02 0.02 0.03 0.03
0.03 0.03 0.02 0.02 0.02 0.02 0.02 0.02 0.02 0.02 0.02 0.03 0.06 0.07 0.05 0.04 0.05 0.05 0.05 0.04 0.03 0.03 0.02 0.02 0.03 0.02 0.02 0.02 0.02 0.02 0.01 0.01 0.02 0.03 0.03 0.03 0.03 0.03 0.03 0.03 0.03 0.04 0.04
0.03 0.03 0.02 0.02 0.02 0.01 0.02 0.03 0.04 0.03 0.02 0.02 0.03 0.06 0.04 0.03 0.04 0.06 0.06 0.03 0.02 0.01 0.01 0.01 0.02 0.02 0.02 0.02 0.03 0.02 0.02 0.02 0.03 0.03 0.03 0.03 0.03 0.03 0.03 0.04 0.04 0.04 0.04
0.02 0.02 0.02 0.03 0.02 0.02 0.02 0.02 0.03 0.04 0.03 0.02 0.02 0.05 0.03 0.03 0.05 0.07 0.07 0.07 0.05 0.03 0.02 0.03 0.02 0.01 0.01 0.01 0.02 0.02 0.02 0.04 0.03 0.03 0.03 0.03 0.03 0.04 0.04 0.03 0.04 0.04 0.04
0.02 0.02 0.03 0.03 0.03 0.03 0.03 0.03 0.02 0.05 0.07 0.05 0.03 0.04 0.03 0.02 0.03 0.04 0.05 0.07 0.08 0.05 0.04 0.05 0.03 0.01 0.01 0.01 0.01 0.02 0.03 0.03 0.03 0.03 0.03 0.03 0.03 0.04 0.05 0.05 0.04 0.04 0.04
0.02 0.02 0.02 0.02 0.02 0.02 0.03 0.03 0.02 0.02 0.04 0.05 0.04 0.04 0.04 0.02 0.02 0.04 0.04 0.06 0.09 0.07 0.06 0.05 0.03 0.02 0.01 0.01 0.01 0.01 0.02 0.04 0.04 0.03 0.03 0.03 0.03 0.05 0.06 0.05 0.05 0.05 0.04
0.01 0.01 0.01 0.01 0.01 0.02 0.02 0.02 0.02 0.02 0.02 0.04 0.06 0.06 0.06 0.04 0.02 0.03 0.04 0.04 0.07 0.08 0.08 0.04 0.02 0.02 0.02 0.02 0.02 0.03 0.04 0.04 0.04 0.04 0.04 0.04 0.05 0.05 0.06 0.05 0.06 0.06 0.06
0.01 0.02 0.01 0.01 0.01 0.02 0.02 0.02 0.02 0.01 0.01 0.02 0.05 0.06 0.05 0.04 0.03 0.02 0.02 0.03 0.05 0.06 0.06 0.05 0.03 0.02 0.01 0.02 0.02 0.02 0.03 0.03 0.03 0.03 0.04 0.05 0.05 0.06 0.06 0.06 0.06 0.06 0.05
0.02 0.02 0.02 0.02 0.02 0.02 0.02 0.02 0.02 0.02 0.02 0.02 0.02 0.04 0.05 0.04 0.03 0.02 0.02 0.03 0.04 0.04 0.03 0.03 0.04 0.04 0.03 0.02 0.02 0.02 0.02 0.03 0.03 0.03 0.04 0.05 0.04 0.04 0.04 0.05 0.06 0.06 0.06
0.04 0.04 0.04 0.02 0.02 0.01 0.02 0.01 0.02 0.02 0.01 0.01 0.01 0.02 0.03 0.06 0.04 0.02 0.02 0.03 0.03 0.03 0.04 0.03 0.04 0.05 0.04 0.03 0.02 0.02 0.02 0.03 0.03 0.03 0.03 0.03 0.03 0.03 0.03 0.04 0.05 0.06 0.06
0.02 0.02 0.02 0.02 0.01 0.01 0.01 0.01 0.01 0.01 0.01 0.01 0.01 0.02 0.03 0.05 0.06 0.04 0.03 0.03 0.03 0.03 0.04 0.04 0.03 0.03 0.04 0.03 0.03 0.03 0.04 0.03 0.03 0.03 0.03 0.03 0.03 0.03 0.03 0.03 0.03 0.04 0.04
0.02 0.02 0.02 0.02 0.02 0.01 0.01 0.01 0.01 0.01 0.01 0.01 0.01 0.02 0.03 0.04 0.05 0.05 0.04 0.03 0.03 0.03 0.03 0.04 0.04 0.03 0.03 0.03 0.04 0.03 0.03 0.03 0.03 0.03 0.03 0.03 0.03 0.03 0.03 0.03 0.03 0.04 0.04
0.01 0.02 0.01 0.01 0.01 0.01 0.01 0.01 0.02 0.02 0.02 0.02 0.02 0.03 0.03 0.04 0.05 0.05 0.04 0.03 0.03 0.03 0.03 0.03 0.04 0.04 0.03 0.03 0.03 0.02 0.02 0.03 0.04 0.04 0.04 0.03 0.03 0.03 0.03 0.03 0.04 0.04 0.04
0.01 0.01 0.01 0.01 0.01 0.01 0.01 0.01 0.01 0.02 0.03 0.03 0.03 0.03 0.04 0.03 0.03 0.03 0.03 0.03 0.02 0.02 0.02 0.02 0.03 0.03 0.03 0.03 0.03 0.03 0.02 0.02 0.02 0.03 0.04 0.03 0.02 0.02 0.03 0.03 0.04 0.04 0.04
0.00 0.01 0.01 0.01 0.01 0.00 0.00 0.00 0.01 0.01 0.02 0.02 0.03 0.03 0.03 0.03 0.03 0.03 0.03 0.02 0.02 0.02 0.02 0.01 0.02 0.02 0.03 0.03 0.03 0.03 0.02 0.02 0.02 0.03 0.03 0.03 0.02 0.02 0.02 0.02 0.03 0.04 0.03
0.00 0.01 0.01 0.01 0.01 0.00 0.00 0.00 0.01 0.01 0.01 0.02 0.02 0.02 0.02 0.03 0.03 0.03 0.03 0.03 0.03 0.03 0.02 0.02 0.01 0.02 0.02 0.02 0.02 0.03 0.03 0.02 0.02 0.03 0.03 0.02 0.02 0.02 0.02 0.02 0.03 0.03 0.03
0.01 0.01 0.01 0.01 0.01 0.00 0.00 0.01 0.01 0.01 0.01 0.01 0.02 0.03 0.03 0.03 0.04 0.03 0.03 0.03 0.02 0.02 0.02 0.02 0.02 0.02 0.02 0.03 0.03 0.03 0.03 0.03 0.02 0.02 0.03 0.03 0.02 0.02 0.02 0.02 0.03 0.03 0.03
0.01 0.01 0.01 0.01 0.01 0.01 0.01 0.01 0.01 0.01 0.01 0.01 0.01 0.02 0.03 0.03 0.04 0.03 0.03 0.02 0.03 0.03 0.02 0.02 0.02 0.02 0.02 0.02 0.02 0.02 0.03 0.03 0.02 0.02 0.03 0.03 0.02 0.02 0.02 0.02 0.03 0.03 0.03
MSLP
1011.21 1011.52 1011.80 1012.03 1012.17 1012.22 1012.19 1012.11 1012.03 1011.98 1012.00 1012.09 1012.26 1012.48 1012.72 1012.93 1013.08 1013.16 1013.15 1013.07 1012.95 1012.82 1012.70 1012.63 1012.61 1012.64 1012.69 1012.74 1012.76 1012.74 1012.65 1012.50 1012.30 1012.07 1011.85 1011.67 1011.55 1011.49 1011.52 1011.62 1011.78 1011.97 1012.19
1010.72 1010.97 1011.22 1011.43 1011.57 1011.63 1011.62 1011.58 1011.52 1011.49 1011.51 1011.61 1011.77 1011.98 1012.21 1012.41 1012.57 1012.65 1012.65 1012.57 1012.45 1012.31 1012.18 1012.08 1012.03 1012.02 1012.06 1012.10 1012.14 1012.15 1012.11 1012.03 1011.90 1011.74 1011.58 1011.44 1011.34 1011.29 1011.31 1011.38 1011.50 1011.66 1011.84
1010.39 1010.57 1010.77 1010.94 1011.06 1011.13 1011.14 1011.11 1011.08 1011.07 1011.11 1011.20 1011.36 1011.55 1011.76 1011.95 1012.09 1012.16 1012.15 1012.08 1011.96 1011.81 1011.66 1011.55 1011.47 1011.44 1011.45 1011.49 1011.53 1011.55 1011.54 1011.50 1011.42 1011.32 1011.21 1011.11 1011.03 1011.00 1011.02 1011.08 1011.19 1011.33 1011.50
1010.20 1010.32 1010.44 1010.56 1010.65 1010.70 1010.71 1010.70 1010.69 1010.70 1010.75 1010.85 1010.99 1011.16 1011.34 1011.49 1011.60 1011.65 1011.63 1011.55 1011.42 1011.26 1011.11 1010.98 1010.89 1010.84 1010.84 1010.86 1010.89 1010.91 1010.91 1010.89 1010.84 1010.77 1010.69 1010.62 1010.57 1010.56 1010.59 1010.66 1010.77 1010.91 1011.09
1010.15 1010.18 1010.23 1010.28 1010.32 1010.33 1010.33 1010.32 1010.32 1010.35 1010.40 1010.50 1010.62 1010.76 1010.90 1011.01 1011.07 1011.08 1011.03 1010.93 1010.78 1010.62 1010.46 1010.33 1010.23 1010.17 1010.15 1010.16 1010.17 1010.19 1010.19 1010.17 1010.13 1010.07 1010.01 1009.95 1009.92 1009.92 1009.96 1010.04 1010.17 1010.33 1010.53
1010.20 1010.14 1010.10 1010.07 1010.04 1010.01 1009.97 1009.95 1009.95 1009.98 1010.03 1010.11 1010.21 1010.31 1010.40 1010.45 1010.46 1010.41 1010.32 1010.18 1010.01 1009.84 1009.69 1009.55 1009.46 1009.40 1009.37 1009.36 1009.37 1009.37 1009.36 1009.33 1009.28 1009.22 1009.15 1009.10 1009.07 1009.07 1009.11 1009.20 1009.35 1009.54 1009.78
1010.31 1010.18 1010.05 1009.92 1009.81 1009.71 1009.64 1009.59 1009.57 1009.58 1009.63 1009.69 1009.75 1009.80 1009.83 1009.81 1009.75 1009.64 1009.49 1009.31 1009.13 1008.94 1008.79 1008.66 1008.57 1008.52 1008.49 1008.48 1008.48 1008.46 1008.43 1008.39 1008.32 1008.24 1008.15 1008.08 1008.04 1008.03 1008.06 1008.16 1008.32 1008.53 1008.81
1010.48 1010.27 1010.05 1009.83 1009.64 1009.47 1009.34 1009.25 1009.20 1009.19 1009.21 1009.23 1009.25 1009.25 1009.21 1009.12 1008.99 1008.81 1008.61 1008.39 1008.17 1007.98 1007.82 1007.70 1007.62 1007.57 1007.55 1007.54 1007.53 1007.50 1007.45 1007.38 1007.28 1007.17 1007.06 1006.96 1006.88 1006.85 1006.87 1006.95 1007.11 1007.34 1007.65
1010.68 1010.41 1010.11 1009.81 1009.54 1009.30 1009.11 1008.97 1008.88 1008.84 1008.82 1008.81 1008.79 1008.72 1008.62 1008.46 1008.25 1008.01 1007.75 1007.49 1007.24 1007.04 1006.87 1006.75 1006.68 1006.64 1006.62 1006.60 1006.58 1006.53 1006.46 1006.35 1006.22 1006.08 1005.92 1005.78 1005.67 1005.60 1005.59 1005.65 1005.80 1006.03 1006.37
1010.91 1010.58 1010.23 1009.87 1009.53 1009.23 1008.99 1008.81 1008.68 1008.60 1008.54 1008.48 1008.41 1008.29 1008.12 1007.90 1007.63 1007.34 1007.02 1006.72 1006.45 1006.22 1006.04 1005.91 1005.83 1005.78 1005.75 1005.71 1005.66 1005.59 1005.48 1005.34 1005.17 1004.99 1004.80 1004.62 1004.47 1004.36 1004.31 1004.35 1004.47 1004.70 1005.04
1011.14 1010.79 1010.41 1010.01 1009.63 1009.29 1009.00 1008.78 1008.61 1008.49 1008.39 1008.29 1008.17 1008.00 1007.78 1007.51 1007.19 1006.85 1006.50 1006.16 1005.86 1005.60 1005.39 1005.24 1005.13 1005.04 1004.97 1004.90 1004.81 1004.69 1004.54 1004.36 1004.15 1003.93 1003.70 1003.49 1003.31 1003.17 1003.10 1003.11 1003.21 1003.43 1003.76
1011.35 1011.01 1010.62 1010.22 1009.82 1009.45 1009.14 1008.88 1008.68 1008.52 1008.39 1008.25 1008.08 1007.88 1007.62 1007.31 1006.96 1006.58 1006.20 1005.83 1005.49 1005.20 1004.95 1004.75 1004.59 1004.44 1004.31 1004.17 1004.02 1003.84 1003.64 1003.41 1003.17 1002.91 1002.67 1002.44 1002.24 1002.09 1002.00 1001.99 1002.08 1002.28 1002.61
1011.54 1011.22 1010.85 1010.46 1010.06 1009.69 1009.36 1009.09 1008.86 1008.67 1008.50 1008.32 1008.13 1007.89 1007.61 1007.28 1006.91 1006.51 1006.11 1005.71 1005.34 1005.00 1004.70 1004.44 1004.20 1003.98 1003.76 1003.53 1003.30 1003.05 1002.78 1002.51 1002.23 1001.95 1001.70 1001.47 1001.28 1001.13 1001.06 1001.05 1001.14 1001.34 1001.65
1011.68 1011.40 1011.06 1010.69 1010.31 1009.95 1009.62 1009.33 1009.08 1008.86 1008.66 1008.46 1008.24 1007.99 1007.70 1007.36 1006.99 1006.58 1006.17 1005.75 1005.35 1004.97 1004.61 1004.27 1003.94 1003.62 1003.30 1002.98 1002.66 1002.33 1002.00 1001.67 1001.37 1001.08 1000.83 1000.62 1000.46 1000.35 1000.30 1000.32 1000.43 1000.62 1000.92
1011.76 1011.52 1011.22 1010.88 1010.52 1010.16 1009.83 1009.53 1009.26 1009.02 1008.80 1008.59 1008.36 1008.10 1007.81 1007.48 1007.11 1006.71 1006.30 1005.87 1005.45 1005.03 1004.61 1004.20 1003.79 1003.38 1002.96 1002.55 1002.13 1001.73 1001.34 1000.98 1000.65 1000.36 1000.13 999.95 999.83 999.76 999.76 999.82 999.95 1000.16 1000.46
1011.77 1011.56 1011.28 1010.97 1010.62 1010.27 1009.94 1009.63 1009.35 1009.10 1008.87 1008.64 1008.41 1008.16 1007.88 1007.57 1007.22 1006.85 1006.45 1006.03 1005.59 1005.15 1004.69 1004.23 1003.76 1003.27 1002.78 1002.29 1001.80 1001.34 1000.90 1000.51 1000.17 999.89 999.67 999.53 999.45 999.43 999.47 999.57 999.73 999.96 1000.25
1011.72 1011.51 1011.25 1010.94 1010.60 1010.25 1009.91 1009.60 1009.31 1009.05 1008.82 1008.60 1008.38 1008.14 1007.89 1007.61 1007.30 1006.95 1006.58 1006.18 1005.76 1005.32 1004.85 1004.36 1003.86 1003.34 1002.80 1002.27 1001.74 1001.24 1000.78 1000.36 1000.01 999.74 999.53 999.40 999.35 999.36 999.43 999.56 999.74 999.97 1000.27
1011.58 1011.37 1011.09 1010.77 1010.43 1010.08 1009.75 1009.43 1009.15 1008.90 1008.67 1008.47 1008.27 1008.07 1007.85 1007.61 1007.34 1007.04 1006.71 1006.35 1005.96 1005.55 1005.10 1004.64 1004.14 1003.63 1003.09 1002.56 1002.03 1001.51 1001.04 1000.61 1000.25 999.96 999.75 999.61 999.55 999.56 999.63 999.76 999.94 1000.16 1000.44
1011.35 1011.11 1010.81 1010.48 1010.13 1009.79 1009.46 1009.16 1008.89 1008.66 1008.47 1008.29 1008.13 1007.96 1007.79 1007.59 1007.37 1007.12 1006.85 1006.54 1006.21 1005.86 1005.47 1005.06 1004.62 1004.16 1003.67 1003.17 1002.67 1002.18 1001.71 1001.27 1000.89 1000.57 1000.32 1000.15 1000.04 1000.01 1000.03 1000.12 1000.27 1000.46 1000.71
1011.02 1010.74 1010.42 1010.08 1009.73 1009.40 1009.09 1008.82 1008.59 1008.40 1008.25 1008.12 1008.00 1007.88 1007.75 1007.61 1007.44 1007.24 1007.03 1006.79 1006.53 1006.25 1005.95 1005.63 1005.28 1004.90 1004.50 1004.08 1003.63 1003.18 1002.72 1002.29 1001.88 1001.51 1001.19 1000.94 1000.75 1000.63 1000.57 1000.58 1000.66 1000.80 1000.99
1010.59 1010.28 1009.95 1009.60 1009.27 1008.97 1008.70 1008.48 1008.30 1008.17 1008.07 1008.00 1007.93 1007.86 1007.77 1007.67 1007.55 1007.40 1007.24 1007.07 1006.89 1006.70 1006.50 1006.28 1006.05 1005.79 1005.50 1005.17 1004.80 1004.40 1003.97 1003.52 1003.08 1002.65 1002.24 1001.88 1001.58 1001.34 1001.17 1001.07 1001.05 1001.10 1001.23
1010.09 1009.77 1009.43 1009.11 1008.81 1008.55 1008.34 1008.18 1008.07 1008.01 1007.97 1007.95 1007.93 1007.90 1007.86 1007.79 1007.70 1007.59 1007.48 1007.36 1007.25 1007.15 1007.05 1006.95 1006.84 1006.70 1006.52 1006.30 1006.02 1005.67 1005.27 1004.82 1004.34 1003.83 1003.33 1002.86 1002.42 1002.04 1001.74 1001.52 1001.38 1001.34 1001.39
1009.58 1009.26 1008.94 1008.65 1008.40 1008.20 1008.06 1007.97 1007.94 1007.93 1007.96 1007.99 1008.01 1008.01 1007.98 1007.93 1007.86 1007.78 1007.69 1007.62 1007.56 1007.53 1007.52 1007.52 1007.52 1007.50 1007.43 1007.30 1007.10 1006.82 1006.45 1006.00 1005.48 1004.92 1004.33 1003.74 1003.18 1002.68 1002.25 1001.90 1001.65 1001.51 1001.48
1009.11 1008.82 1008.55 1008.30 1008.11 1007.98 1007.90 1007.87 1007.90 1007.95 1008.01 1008.08 1008.12 1008.13 1008.12 1008.07 1008.00 1007.92 1007.84 1007.79 1007.77 1007.79 1007.84 1007.92 1008.00 1008.07 1008.10 1008.06 1007.93 1007.70 1007.37 1006.93 1006.39 1005.79 1005.13 1004.47 1003.82 1003.21 1002.67 1002.23 1001.88 1001.65 1001.54
1008.78 1008.53 1008.30 1008.10 1007.96 1007.88 1007.85 1007.88 1007.94 1008.02 1008.12 1008.19 1008.24 1008.26 1008.23 1008.17 1008.09 1008.00 1007.92 1007.87 1007.87 1007.91 1008.00 1008.12 1008.26 1008.39 1008.48 1008.51 1008.44 1008.26 1007.96 1007.55 1007.02 1006.40 1005.73 1005.02 1004.32 1003.65 1003.05 1002.54 1002.13 1001.83 1001.65
1008.61 1008.40 1008.21 1008.05 1007.95 1007.90 1007.90 1007.95 1008.03 1008.12 1008.22 1008.30 1008.34 1008.34 1008.30 1008.23 1008.13 1008.02 1007.93 1007.87 1007.86 1007.91 1008.01 1008.15 1008.31 1008.47 1008.60 1008.67 1008.65 1008.52 1008.26 1007.88 1007.38 1006.79 1006.13 1005.43 1004.73 1004.05 1003.43 1002.89 1002.44 1002.09 1001.85
Thickness
5781 5776 5772 5768 5764 5760 5757 5754 5750 5748 5745 5742 5739 5737 5735 5733 5731 5729 5729 5727 5725 5724 5723 5722 5720 5719 5719 5719 5719 5717 5715 5713 5710 5714 5717 5717 5713 5712 5711 5710 5710 5710 5710
5778 5773 5768 5764 5761 5757 5753 5750 5746 5743 5740 5737 5734 5732 5730 5729 5727 5725 5723 5722 5720 5719 5718 5716 5715 5714 5711 5711 5711 5710 5708 5707 5705 5703 5707 5708 5706 5706 5705 5704 5706 5707 5705
5775 5770 5765 5760 5756 5753 5749 5746 5742 5739 5735 5733 5730 5727 5725 5723 5721 5719 5718 5717 5715 5714 5713 5711 5710 5707 5705 5705 5703 5703 5703 5703 5701 5699 5700 5701 5701 5701 5699 5699 5700 5699 5700
5771 5766 5760 5756 5752 5749 5745 5741 5737 5734 5730 5727 5724 5722 5720 5718 5716 5714 5712 5711 5710 5709 5708 5706 5704 5702 5700 5698 5698 5696 5696 5695 5694 5693 5694 5694 5693 5693 5691 5691 5691 5692 5693
5764 5759 5755 5751 5748 5744 5739 5735 5731 5728 5726 5722 5718 5715 5714 5713 5711 5707 5706 5706 5704 5702 5702 5700 5699 5696 5693 5691 5691 5690 5688 5687 5688 5687 5687 5686 5685 5684 5683 5684 5683 5684 5686
5756 5752 5749 5745 5741 5737 5733 5728 5725 5722 5719 5715 5712 5709 5708 5708 5702 5699 5699 5700 5698 5696 5695 5694 5693 5690 5687 5683 5681 5680 5678 5677 5677 5677 5678 5676 5676 5677 5676 5676 5675 5675 5675
5749 5745 5742 5738 5734 5730 5727 5722 5719 5715 5712 5708 5706 5703 5701 5698 5694 5692 5690 5691 5691 5689 5688 5686 5686 5686 5681 5679 5676 5674 5672 5669 5668 5668 5669 5668 5668 5668 5666 5666 5666 5665 5665
5742 5738 5735 5731 5727 5723 5720 5716 5712 5709 5705 5702 5699 5697 5694 5691 5686 5683 5682 5683 5684 5682 5681 5679 5676 5674 5673 5669 5669 5668 5667 5666 5664 5663 5662 5661 5661 5660 5658 5658 5657 5658 5659
5734 5731 5729 5725 5720 5716 5713 5709 5706 5702 5698 5695 5693 5690 5687 5684 5679 5676 5673 5676 5676 5674 5673 5672 5669 5667 5661 5658 5659 5659 5659 5659 5657 5655 5653 5652 5651 5650 5649 5649 5649 5649 5650
5726 5724 5721 5718 5713 5709 5706 5702 5699 5696 5692 5690 5687 5684 5681 5678 5672 5669 5666 5670 5669 5668 5667 5665 5660 5657 5653 5650 5651 5651 5650 5650 5650 5650 5647 5646 5645 5644 5642 5641 5641 5640 5641
5719 5716 5712 5709 5705 5702 5698 5694 5691 5688 5685 5681 5679 5676 5674 5670 5666 5662 5658 5660 5661 5661 5660 5659 5655 5648 5644 5642 5641 5642 5641 5640 5642 5642 5642 5642 5641 5640 5639 5637 5635 5633 5633
5710 5706 5703 5700 5698 5695 5690 5687 5683 5679 5676 5673 5671 5668 5667 5664 5659 5655 5651 5649 5649 5650 5651 5651 5647 5640 5637 5634 5634 5632 5631 5630 5634 5635 5634 5634 5634 5633 5633 5632 5630 5628 5627
5700 5697 5694 5691 5688 5685 5682 5679 5676 5671 5670 5667 5665 5662 5659 5657 5653 5647 5643 5641 5639 5639 5641 5637 5633 5630 5628 5628 5626 5624 5624 5626 5626 5626 5626 5626 5626 5626 5625 5624 5624 5622 5620
5691 5688 5686 5682 5679 5676 5673 5671 5669 5665 5662 5659 5656 5653 5651 5648 5646 5642 5638 5635 5630 5629 5630 5627 5623 5622 5621 5620 5620 5620 5620 5619 5618 5618 5618 5619 5619 5618 5618 5617 5616 5616 5615
5682 5679 5677 5675 5672 5667 5664 5661 5659 5656 5653 5648 5646 5644 5641 5638 5634 5628 5627 5626 5624 5622 5619 5619 5620 5619 5618 5618 5617 5616 5614 5612 5611 5610 5610 5609 5610 5610 5610 5610 5608 5608 5607
5674 5671 5670 5667 5662 5659 5655 5651 5646 5644 5640 5637 5633 5631 5631 5626 5621 5617 5615 5612 5610 5607 5608 5612 5612 5612 5611 5610 5609 5607 5606 5604 5603 5602 5602 5602 5602 5602 5602 5601 5600 5600 5600
5664 5662 5660 5657 5654 5650 5647 5643 5640 5635 5631 5628 5625 5621 5618 5614 5611 5607 5604 5602 5600 5597 5600 5605 5605 5603 5602 5602 5602 5601 5599 5597 5595 5595 5595 5594 5594 5594 5593 5593 5593 5593 5593
5656 5653 5650 5647 5645 5642 5639 5636 5634 5631 5627 5623 5618 5612 5609 5605 5602 5598 5595 5593 5596 5594 5597 5597 5597 5596 5595 5595 5595 5594 5592 5590 5589 5588 5587 5586 5586 5585 5585 5585 5585 5584 5585
5646 5644 5641 5639 5636 5633 5630 5627 5625 5622 5620 5616 5613 5608 5601 5598 5594 5591 5588 5590 5592 5592 5591 5590 5590 5589 5588 5587 5586 5585 5584 5583 5582 5581 5580 5578 5577 5577 5577 5577 5578 5576 5576
5636 5631 5629 5629 5627 5625 5621 5618 5615 5613 5611 5608 5606 5604 5599 5594 5593 5590 5586 5586 5586 5586 5585 5583 5582 5581 5580 5579 5577 5576 5576 5575 5574 5573 5573 5571 5571 5570 5570 5570 5570 5570 5571
5628 5624 5619 5620 5619 5617 5614 5611 5608 5605 5602 5600 5599 5597 5589 5589 5588 5586 5584 5582 5581 5580 5578 5576 5575 5574 5572 5571 5570 5568 5568 5568 5567 5566 5565 5564 5564 5564 5564 5564 5564 5564 5564
5620 5618 5615 5613 5611 5608 5605 5603 5601 5598 5595 5593 5591 5589 5581 5582 5582 5580 5578 5577 5576 5574 5572 5570 5569 5568 5567 5565 5563 5562 5561 5561 5560 5559 5557 5557 5556 5557 5557 5558 5558 5557 5557
5612 5611 5608 5606 5603 5598 5597 5596 5593 5591 5588 5586 5584 5581 5578 5576 5574 5573 5572 5571 5570 5569 5567 5565 5564 5563 5561 5559 5557 5556 5554 5554 5553 5551 5550 5550 5550 5551 5550 5551 5550 5551 5552
5605 5603 5601 5599 5596 5594 5592 5589 5586 5584 5581 5579 5576 5574 5573 5570 5568 5567 5566 5565 5564 5562 5561 5560 5558 5557 5555 5553 5552 5550 5548 5545 5544 5543 5542 5543 5543 5544 5544 5544 5545 5546 5545
5598 5596 5594 5591 5590 5588 5585 5582 5579 5577 5574 5572 5570 5568 5567 5565 5563 5561 5560 5559 5557 5556 5555 5554 5553 5552 5550 5548 5546 5544 5540 5537 5535 5535 5536 5537 5537 5537 5537 5538 5539 5539 5539
5592 5590 5588 5586 5583 5581 5578 5575 5573 5570 5567 5565 5564 5562 5560 5558 5557 5556 5554 5552 5551 5551 5549 5549 5548 5546 5545 5543 5541 5537 5534 5531 5529 5528 5529 5531 5531 5532 5532 5532 5533 5534 5534